Flag for Netherlands Weather past 2 weeks in Enschede, Netherlands

Now
46 °F

Light rain. Mostly cloudy.


Feels Like: 45 °F
Forecast: 45 / 61 °F
Wind: 3 mph from North

Location: Deelen

Current Time: May 26, 2015 at 2:49:46 AM

Latest Report: May 26, 2015 at 1:55 AM


Visibility: N/A

Pressure: 30.07 "Hg

Humidity: 93%

Dew point: 45 °F

Location of EnschedeLocation

Historic Weather in Enschede — Graph

°F

Enschede temperature yesterday

Maximum temperature yesterday: 59 °F (at 12:25 PM)
Minimum temperature yesterday: 48 °F (at 11:55 PM)
Average temperature yesterday: 54 °F

Past Weeks' High & Low Weather Summary

 TemperatureHumidityPressure
High77 °F (May 11, 2:55 PM)100% (May 13, 4:55 AM)30.33 "Hg (May 13, 4:55 AM)
Low34 °F (May 21, 5:55 AM)32% (May 24, 6:55 PM)29.59 "Hg (May 19, 2:25 AM)
Average53 °F71%30.05 "Hg
* Reported May 11 1:25 AM — May 26 1:55 AM, Enschede, Weather by CustomWeather, © 2015

Note: Actual official high and low records may vary slightly from our data, if they occured in-between our weather recording intervals... More about our weather records

Advertising

Enschede weather history for previous 24 hours

 ConditionsComfort  
Time TempWeatherWind HumidityBarometerVisibility
1:55 AM
Tue, May 26
46 °FLight rain. Mostly cloudy.3 mph93%30.07 "HgN/A
1:25 AM46 °FPartly cloudy.6 mph93%30.07 "HgN/A
12:55 AM46 °FPassing clouds.3 mph93%30.04 "HgN/A
12:25 AM48 °FPassing clouds.2 mph87%30.04 "HgN/A
11:55 PM
Mon, May 25
48 °FMostly cloudy.3 mph87%30.04 "HgN/A
11:25 PM50 °FDrizzle. Mostly cloudy.10 mph76%30.04 "HgN/A
10:55 PM52 °FPartly cloudy.8 mph72%30.04 "HgN/A
10:25 PM52 °FOvercast.6 mph72%30.04 "HgN/A
9:55 PM52 °FMostly cloudy.6 mph67%30.04 "HgN/A
9:25 PM52 °FMore clouds than sun.8 mph67%30.01 "HgN/A
8:55 PM54 °FMostly cloudy.9 mph63%30.01 "HgN/A
8:25 PM54 °FMore clouds than sun.10 mph67%30.01 "HgN/A
7:55 PM55 °FOvercast.14 mph63%30.01 "HgN/A
7:25 PM55 °FBroken clouds.10 mph63%29.98 "HgN/A
6:55 PM55 °FPartly sunny.10 mph63%29.98 "HgN/A
6:25 PM55 °FMostly cloudy.10 mph59%29.98 "HgN/A
5:55 PM57 °FBroken clouds.7 mph59%29.98 "HgN/A
5:25 PM57 °FOvercast.10 mph59%29.98 "HgN/A
4:55 PM57 °FPartly sunny.10 mph59%29.98 "HgN/A
4:25 PM59 °FPartly sunny.10 mph51%29.98 "HgN/A
3:55 PM59 °FOvercast.12 mph51%29.98 "HgN/A
3:25 PM59 °FMostly cloudy.13 mph55%29.98 "HgN/A
2:55 PM59 °FOvercast.10 mph51%29.98 "HgN/A
2:25 PM59 °FBroken clouds.12 mph55%29.98 "HgN/A
1:55 PM59 °FMore clouds than sun.9 mph51%29.98 "HgN/A
1:25 PM59 °FBroken clouds.6 mph51%29.98 "HgN/A
12:55 PM59 °FCloudy.8 mph51%29.98 "HgN/A
12:25 PM59 °FBroken clouds.6 mph55%29.98 "HgN/A
11:55 AM57 °FPartly sunny.9 mph55%29.98 "HgN/A
11:25 AM57 °FOvercast.6 mph59%29.98 "HgN/A
10:55 AM57 °FPartly sunny.9 mph59%29.98 "HgN/A
10:25 AM55 °FMostly cloudy.9 mph67%29.98 "HgN/A
9:55 AM54 °FPartly sunny.9 mph72%30.01 "HgN/A
9:25 AM54 °FOvercast.9 mph72%30.01 "HgN/A
8:55 AM54 °FOvercast.8 mph82%30.01 "HgN/A
8:25 AM54 °FMostly cloudy.5 mph82%29.98 "HgN/A
7:55 AM52 °FOvercast.3 mph88%29.98 "HgN/A
7:25 AM52 °FOvercast.5 mph94%29.98 "HgN/A
6:55 AM52 °FFog.5 mph94%29.98 "Hg4 mi
6:25 AM52 °FDrizzle. Overcast.6 mph100%29.98 "Hg1 mi
5:55 AM52 °FFog.3 mph100%29.98 "Hg1 mi
5:25 AM52 °FFog.2 mph100%29.98 "Hg1 mi
4:55 AM52 °FFog.3 mph100%29.98 "Hg2 mi
4:25 AM52 °FFog.2 mph100%29.98 "Hg2 mi
3:55 AM52 °FFog.5 mph100%30.01 "Hg1 mi
3:25 AM52 °FFog.2 mph94%30.01 "Hg2 mi
2:55 AM52 °FFog.2 mph94%30.01 "Hg6 mi
2:25 AM52 °FLight rain. Partly cloudy.2 mph94%30.01 "HgN/A
Weather by CustomWeather, © 2015

See weather overviewHow to use our weather pages